TimeEST,TemperatureF,Dew PointF,Humidity,Sea Level PressureIn,VisibilityMPH,Wind Direction,Wind SpeedMPH,Gust SpeedMPH,PrecipitationIn,Events,Conditions,WindDirDegrees,DateUTC
12:54 AM,25.0,18.0,75,30.20,10.0,ENE,5.8,-,N/A,,Clear,70,2012-11-07 05:54:00
1:54 AM,25.0,18.0,75,30.23,10.0,Calm,Calm,-,N/A,,Clear,0,2012-11-07 06:54:00
2:54 AM,24.1,17.1,75,30.22,10.0,NE,3.5,-,N/A,,Clear,50,2012-11-07 07:54:00
3:54 AM,25.0,17.1,72,30.22,10.0,ENE,5.8,-,N/A,,Clear,60,2012-11-07 08:54:00
4:54 AM,23.0,17.1,78,30.20,10.0,ENE,5.8,-,N/A,,Clear,70,2012-11-07 09:54:00
5:54 AM,23.0,17.1,78,30.19,10.0,NE,5.8,-,N/A,,Clear,50,2012-11-07 10:54:00
6:54 AM,23.0,17.1,78,30.21,10.0,NE,5.8,-,N/A,,Clear,50,2012-11-07 11:54:00
7:54 AM,24.1,18.0,77,30.22,10.0,ENE,5.8,-,N/A,,Clear,60,2012-11-07 12:54:00
8:54 AM,26.1,19.0,75,30.21,10.0,ENE,4.6,-,N/A,,Scattered Clouds,60,2012-11-07 13:54:00
9:54 AM,28.9,21.0,72,30.21,10.0,Calm,Calm,-,N/A,,Partly Cloudy,0,2012-11-07 14:54:00
10:54 AM,32.0,23.0,69,30.19,10.0,North,3.5,-,N/A,,Mostly Cloudy,350,2012-11-07 15:54:00
11:54 AM,34.0,19.9,56,30.17,10.0,North,5.8,-,N/A,,Mostly Cloudy,360,2012-11-07 16:54:00
12:54 PM,35.1,19.9,54,30.14,10.0,North,6.9,-,N/A,,Mostly Cloudy,360,2012-11-07 17:54:00
1:54 PM,36.0,21.0,55,30.11,10.0,North,10.4,-,N/A,,Mostly Cloudy,10,2012-11-07 18:54:00
2:54 PM,37.0,19.9,50,30.11,10.0,North,9.2,-,N/A,,Mostly Cloudy,360,2012-11-07 19:54:00
3:54 PM,36.0,19.0,50,30.09,10.0,North,9.2,-,N/A,,Overcast,360,2012-11-07 20:54:00
4:54 PM,34.0,21.9,61,30.09,10.0,North,11.5,-,N/A,,Mostly Cloudy,350,2012-11-07 21:54:00
5:54 PM,33.1,21.9,64,30.09,10.0,NNW,11.5,-,N/A,,Clear,340,2012-11-07 22:54:00
6:54 PM,33.1,21.0,61,30.10,10.0,North,11.5,-,N/A,,Clear,360,2012-11-07 23:54:00
7:54 PM,33.1,21.0,61,30.09,10.0,North,9.2,-,N/A,,Clear,350,2012-11-08 00:54:00
8:54 PM,32.0,21.0,64,30.07,10.0,North,11.5,-,N/A,,Clear,360,2012-11-08 01:54:00
9:54 PM,32.0,21.0,64,30.05,10.0,North,11.5,-,N/A,,Clear,350,2012-11-08 02:54:00
10:54 PM,30.9,21.0,67,30.04,10.0,NNW,5.8,-,N/A,,Clear,340,2012-11-08 03:54:00
11:54 PM,32.0,19.9,61,30.02,10.0,North,8.1,-,N/A,,Clear,350,2012-11-08 04:54:00